Weather in Georgievka

Russia / Samara Oblast     53°16′22″N   51°00′00″E
temp.,
°C
wind,
m/s
gust,
m/s
humid.,
%
clouds,
%
prec.,
mm/h
press.,
hPa
HPBL,
m
7 march, sun
sun701:00−14nne1284100 0.0 101320
04:00−15n128384 0.0 101320
07:00−18w118219 0.0 101220
10:00−13wsw238350 0.0 101393
13:00−9wsw359398 0.1 1012332
16:00−8sw469298 0.1 1012444
19:00−12ssw459797 0.0 1011101
22:00−10ssw5129298 0.0 1009402
8 march, mon
mon801:00−7ssw81694100 0.6 1005744
04:00−5ssw101793100 1.6 1002978
07:00−4sw101794100 1.3 9991046
10:00−2wsw101690100 2.5 10011318
13:00−3wsw8137462 0.2 10031217
16:00−3wsw6117945 0.2 1005935
19:00−7sw458773 0.0 100587
22:00−4ssw489487 0.1 1005265
9 march, tue
tue901:00−5ssw3797100 0.3 1004176
04:00−5wsw5119492 0.4 1003406
07:00−10wsw5109473 0.0 1006207
10:00−10w489051 0.0 1008297
13:00−7wnw248768 0.0 1009371
16:00−6nw238954 0.0 1009401
19:00−10nnw3492100 0.0 100969
22:00−13nw3493100 0.0 101150
10 march, wed
wed1001:00−16nw339660 0.0 101124
04:00−18nw339676 0.0 101235
07:00−18nw3496100 0.0 101385
10:00−16nw5891100 0.1 1014359
13:00−15nw579082 0.0 1016417
16:00−15nw588988 0.0 1016539
19:00−19nw4894100 0.0 1018180
22:00−22nw3796100 0.1 1021192
11 march, thu
thu1101:00−25nw349682 0.0 102148
04:00−28nw339656 0.0 102326
07:00−29wnw23960 0.0 102420
10:00−24w35950 0.0 1026193
13:00−20wsw469330 0.0 1025294
16:00−17wsw699256 0.0 1025397
19:00−16wsw489597 0.1 1025232
22:00−15w349695 0.3 102680